Change the Weather History Date:

Thursday, April 26, 2012

  Actual Average Record
Temperature  
Mean Temperature 64 °F 59 °F  
Max Temperature 74 °F 71 °F 92 °F (1957)
Min Temperature 54 °F 48 °F 32 °F (1919)
Degree Days  
Heating Degree Days 1 7  
Month to date heating degree days 260 266  
Since 1 July heating degree days 3582 4363  
Cooling Degree Days 0 1  
Month to date cooling degree days 11 25  
Year to date cooling degree days 54 30  
Growing Degree Days 14 (Base 50)    
Moisture  
Dew Point 57 °F    
Average Humidity 82    
Maximum Humidity 100    
Minimum Humidity 63    
Precipitation  
Precipitation 1.31 in 0.12 in 1.70 in (1914)
Month to date precipitation 2.08 2.95  
Year to date precipitation 9.25 12.89  
Snow  
Snow 0.00 in - - ()
Month to date snowfall 0.0  
Since 1 September snowfall 5.5  
Snow Depth 0.00 in    
Sea Level Pressure  
Sea Level Pressure 29.72 in    
Wind  
Wind Speed 7 mph (South)    
Max Wind Speed 18 mph    
Max Gust Speed 28 mph    
Visibility 6 miles    
Events Rain , Thunderstorm    
T = Trace of Precipitation, MM = Missing Value Source: NWS Daily Summary

Daily Weather History Graph

Daily Weather History Graph

Search for Another Location

Airport or City:

Trip Planner

Search our weather history database for the weather conditions in past years. The results will help you decide how hot, cold, wet, or windy it might be!

Date:

Astronomy

Apr. 26, 2012 Rise Set
Actual Time 6:38 AM EDT 8:17 PM EDT
Civil Twilight 6:10 AM EDT 8:45 PM EDT
Nautical Twilight 5:36 AM EDT 9:19 PM EDT
Astronomical Twilight 5:00 AM EDT 9:55 PM EDT
Moon 10:18 AM EDT (4/26) 12:20 AM EDT (4/26)
Length of Visible Light 14h 34m
Length of Day
13h 38m
Waxing Crescent, 24% of the Moon is Illuminated
Apr 26
Waxing Crescent
Apr 29
First Quarter
May 5
Full
May 12
Last Quarter
May 20
New

Hourly Weather History & Observations

Time (EDT) Temp. Dew Point Humidity Pressure Visibility Wind Dir Wind Speed Gust Speed Precip Events Conditions
12:51 AM 54.0 °F 54.0 °F 100% 29.72 in 7.0 mi East 4.6 mph - 0.01 in   Mostly Cloudy
1:33 AM 55.4 °F 53.6 °F 94% 29.71 in 6.0 mi East 5.8 mph - N/A Thunderstorm Overcast
1:51 AM 55.0 °F 54.0 °F 96% 29.72 in 5.0 mi Calm Calm - 0.00 in Rain , Thunderstorm Light Rain
2:01 AM 55.4 °F 53.6 °F 94% 29.74 in 2.5 mi NNE 17.3 mph - 0.02 in Rain , Thunderstorm Rain
2:08 AM 55.4 °F 53.6 °F 94% 29.76 in 2.5 mi North 12.7 mph - 0.06 in Rain , Thunderstorm Heavy Rain
2:12 AM 55.4 °F 53.6 °F 94% 29.76 in 3.0 mi North 11.5 mph - 0.09 in Rain , Thunderstorm Thunderstorms and Rain
2:23 AM 57.2 °F 55.4 °F 94% 29.72 in 2.5 mi East 10.4 mph 23.0 mph 0.19 in Rain , Thunderstorm Heavy Thunderstorms and Rain
2:32 AM 57.2 °F 55.4 °F 94% 29.74 in 3.0 mi Calm Calm - 0.28 in Rain , Thunderstorm Thunderstorms and Rain
2:47 AM 55.4 °F 55.4 °F 100% 29.72 in 2.0 mi SSE 4.6 mph - 0.39 in Rain , Thunderstorm Heavy Thunderstorms and Rain
2:51 AM 55.9 °F 54.0 °F 93% 29.69 in 2.5 mi ESE 6.9 mph - 0.41 in Rain , Thunderstorm Heavy Thunderstorms and Rain
3:03 AM 55.4 °F 55.4 °F 100% 29.69 in 6.0 mi SSE 8.1 mph - 0.05 in Rain , Thunderstorm Light Thunderstorms and Rain
3:24 AM 55.4 °F 55.4 °F 100% 29.69 in 10.0 mi South 6.9 mph - 0.06 in Rain Light Rain
3:51 AM 55.9 °F 55.0 °F 97% 29.71 in 10.0 mi SSW 10.4 mph - 0.06 in Rain Light Rain
3:59 AM 55.4 °F 55.4 °F 100% 29.71 in 10.0 mi South 6.9 mph - 0.00 in Rain , Thunderstorm Light Rain
4:49 AM 55.4 °F 55.4 °F 100% 29.71 in 1.8 mi South 5.8 mph - 0.11 in Rain , Thunderstorm Heavy Thunderstorms and Rain
4:50 AM 55.9 °F 55.0 °F 97% 29.70 in 1.8 mi South 8.1 mph - 0.13 in Rain , Thunderstorm Heavy Thunderstorms and Rain
5:01 AM 55.4 °F 55.4 °F 100% 29.70 in 3.0 mi South 10.4 mph - 0.13 in Rain , Thunderstorm Thunderstorms and Rain
5:22 AM 57.2 °F 55.4 °F 94% 29.70 in 9.0 mi Variable 4.6 mph - 0.19 in Rain Light Rain
5:51 AM 57.0 °F 55.9 °F 96% 29.68 in 10.0 mi SSE 6.9 mph - 0.19 in   Overcast
6:51 AM 57.0 °F 55.0 °F 93% 29.67 in 10.0 mi Calm Calm - N/A   Mostly Cloudy
7:51 AM 57.9 °F 57.0 °F 97% 29.67 in 10.0 mi South 3.5 mph - N/A   Overcast
8:51 AM 57.9 °F 57.0 °F 97% 29.68 in 8.0 mi ENE 5.8 mph - N/A   Overcast
9:06 AM 57.2 °F 57.2 °F 100% 29.70 in 4.0 mi Calm Calm - 0.00 in Rain , Thunderstorm Light Rain
9:14 AM 57.2 °F 57.2 °F 100% 29.71 in 3.0 mi Calm Calm - 0.00 in Rain , Thunderstorm Rain
9:16 AM 57.2 °F 57.2 °F 100% 29.72 in 1.8 mi Calm Calm - 0.01 in Rain , Thunderstorm Heavy Rain
9:28 AM 57.2 °F 57.2 °F 100% 29.70 in 0.8 mi ESE 3.5 mph - 0.18 in Rain , Thunderstorm Heavy Thunderstorms and Rain
9:32 AM 57.2 °F 57.2 °F 100% 29.69 in 1.0 mi East 4.6 mph - 0.31 in Rain , Thunderstorm Thunderstorms and Rain
9:37 AM 57.2 °F 57.2 °F 100% 29.69 in 3.0 mi SE 4.6 mph - 0.32 in Rain , Thunderstorm Light Thunderstorms and Rain
9:51 AM 57.9 °F 57.0 °F 97% 29.68 in 4.0 mi SE 3.5 mph - 0.33 in Rain , Thunderstorm Light Rain
10:09 AM 59.0 °F 57.2 °F 94% 29.71 in 4.0 mi Calm Calm - 0.01 in   Overcast
10:21 AM 59.0 °F 57.2 °F 94% 29.71 in 7.0 mi ENE 4.6 mph - 0.01 in   Overcast
10:29 AM 59.0 °F 57.2 °F 94% 29.72 in 3.0 mi Calm Calm - 0.01 in Rain Light Rain
10:51 AM 59.0 °F 57.9 °F 96% 29.70 in 2.0 mi ESE 4.6 mph - 0.01 in   Overcast
11:39 AM 62.6 °F 60.8 °F 94% 29.71 in 6.0 mi South 5.8 mph - N/A   Overcast
11:51 AM 62.1 °F 60.1 °F 93% 29.71 in 7.0 mi SSW 6.9 mph - N/A   Overcast
12:21 PM 62.6 °F 60.8 °F 94% 29.71 in 10.0 mi SSW 8.1 mph - N/A   Overcast
12:51 PM 64.0 °F 62.1 °F 93% 29.70 in 10.0 mi SSW 5.8 mph - N/A   Overcast
1:51 PM 66.0 °F 63.0 °F 90% 29.70 in 10.0 mi SSW 5.8 mph - N/A   Overcast
2:51 PM 69.1 °F 63.0 °F 81% 29.70 in 10.0 mi West 8.1 mph - N/A   Overcast
3:14 PM 73.4 °F 64.4 °F 73% 29.71 in 10.0 mi WSW 13.8 mph 21.9 mph N/A   Scattered Clouds
3:51 PM 73.9 °F 62.1 °F 66% 29.70 in 10.0 mi West 13.8 mph 21.9 mph N/A   Scattered Clouds
4:21 PM 69.8 °F 62.6 °F 78% 29.72 in 1.5 mi West 16.1 mph 26.5 mph 0.02 in Rain Heavy Rain
4:27 PM 66.2 °F 60.8 °F 83% 29.72 in 6.0 mi WNW 9.2 mph 26.5 mph 0.16 in Rain , Thunderstorm Light Rain
4:51 PM 73.0 °F 64.0 °F 73% 29.72 in 8.0 mi WNW 11.5 mph 18.4 mph 0.18 in   Clear
5:51 PM 71.1 °F 59.0 °F 66% 29.74 in 7.0 mi WNW 11.5 mph 19.6 mph N/A   Partly Cloudy
6:51 PM 69.1 °F 57.9 °F 68% 29.76 in 7.0 mi NW 6.9 mph - N/A   Partly Cloudy
7:51 PM 66.9 °F 54.0 °F 63% 29.81 in 10.0 mi WNW 9.2 mph - N/A   Partly Cloudy
8:51 PM 64.9 °F 54.0 °F 68% 29.85 in 10.0 mi NNW 9.2 mph - N/A   Scattered Clouds
9:51 PM 61.0 °F 54.0 °F 78% 29.88 in 8.0 mi North 5.8 mph - N/A   Partly Cloudy
10:51 PM 59.0 °F 51.1 °F 75% 29.90 in 10.0 mi North 4.6 mph - N/A   Mostly Cloudy
11:51 PM 57.0 °F 48.9 °F 74% 29.92 in 10.0 mi NNW 8.1 mph - N/A   Clear